Location: York
(31.8935°S, 116.7682°E)
Time: 05:00:06
(UTC+08:00)

X-37B - Pass Details

Date: 23 May 2021
Orbit: 386 x 389 km, 45.0° (Epoch: 10 June)

Event Time Altitude Azimuth Distance (km) Brightness Sun altitude
Exits shadow 05:14:13 46° 114° (ESE) 532 1.5 -22.1°
Drops below altitude 10° 05:16:54 10° 70° (ENE) 1,419 4.6 -21.5°
Sets 05:18:59 0° 64° (ENE) 2,268 5.9 -21.1°
